,,PA_Meas_PMT16A,,PR_Meas_QMR101_102,,RH_Meas_QMH101,,SR_Meas_QMS101,,TA_Meas_QMH101,,GenWind,,GenWind,
time,status,PA,status,PR,status,RH,status,SR,status,TA,status,DirAvg,status,SpdAvg,
2012-07-10, 00:00:04,VALID,917.461,VALID,0,VALID,94.5304,VALID,0,VALID,20.408,VALID,345,VALID,0,
2012-07-10, 00:01:04,VALID,917.496,VALID,0,VALID,94.6523,VALID,0,VALID,20.3885,VALID,345,VALID,0,
2012-07-10, 00:02:04,VALID,917.471,VALID,0,VALID,94.7591,VALID,0,VALID,20.408,VALID,345,VALID,0,
2012-07-10, 00:03:04,VALID,917.485,VALID,0,VALID,94.8963,VALID,0,VALID,20.4275,VALID,345,VALID,0,
2012-07-10, 00:04:04,VALID,917.464,VALID,0,VALID,94.9801,VALID,0,VALID,20.4275,VALID,345,VALID,0,
2012-07-10, 00:05:04,VALID,917.451,VALID,0,VALID,95.0411,VALID,0,VALID,20.408,VALID,345,VALID,0,
2012-07-10, 00:06:04,VALID,917.409,VALID,0,VALID,95.0792,VALID,0,VALID,20.3885,VALID,345,VALID,0,
2012-07-10, 00:07:04,VALID,917.377,VALID,0,VALID,95.1479,VALID,0,VALID,20.3885,VALID,345,VALID,0,
2012-07-10, 00:08:04,VALID,917.351,VALID,0,VALID,95.1936,VALID,0,VALID,20.3885,VALID,345,VALID,0,
2012-07-10, 00:09:04,VALID,917.364,VALID,0,VALID,95.2393,VALID,0,VALID,20.3885,VALID,345,VALID,0,
2012-07-10, 00:10:04,VALID,917.33,VALID,0,VALID,95.2622,VALID,0,VALID,20.3885,INVALID,360,VALID,0,
2012-07-10, 00:11:04,VALID,917.32,VALID,0,VALID,95.3232,VALID,0,VALID,20.3885,VALID,345,VALID,0,
2012-07-10, 00:12:04,VALID,917.333,VALID,0,VALID,95.3918,VALID,0,VALID,20.3885,VALID,345,VALID,0,
2012-07-10, 00:13:04,VALID,917.311,VALID,0,VALID,95.4604,VALID,0,VALID,20.3869,VALID,345,VALID,0,
2012-07-10, 00:14:04,VALID,917.291,VALID,0,VALID,95.4147,VALID,0,VALID,20.3885,VALID,345,VALID,0,
2012-07-10, 00:15:04,VALID,917.302,VALID,0,VALID,95.4299,VALID,0,VALID,20.408,VALID,345,VALID,0,
2012-07-10, 00:16:04,VALID,917.285,VALID,0,VALID,95.4528,VALID,0,VALID,20.3885,VALID,345,VALID,0,
2012-07-10, 00:17:04,VALID,917.279,VALID,0,VALID,95.4604,VALID,0,VALID,20.3885,VALID,345,VALID,0,
2012-07-10, 00:18:04,VALID,917.296,VALID,0,VALID,95.4299,VALID,0,VALID,20.3674,VALID,345,VALID,0,
2012-07-10, 00:19:04,VALID,917.242,VALID,0,VALID,95.4452,VALID,0,VALID,20.369,VALID,345,VALID,0,
2012-07-10, 00:20:04,VALID,917.28,VALID,0,VALID,95.4757,VALID,0,VALID,20.369,VALID,345,VALID,0,
2012-07-10, 00:21:04,VALID,917.234,VALID,0,VALID,95.4833,VALID,0,VALID,20.3885,VALID,345,VALID,0,
2012-07-10, 00:22:04,VALID,917.252,VALID,0,VALID,95.4833,VALID,0,VALID,20.369,VALID,345,VALID,0,
2012-07-10, 00:23:04,VALID,917.246,VALID,0,VALID,95.468,VALID,0,VALID,20.3495,VALID,345,VALID,0,
2012-07-10, 00:24:04,VALID,917.194,VALID,0,VALID,95.4223,VALID,0,VALID,20.3105,VALID,345,VALID,0,
2012-07-10, 00:25:04,VALID,917.174,VALID,0,VALID,95.4375,VALID,0,VALID,20.3315,VALID,345,VALID,0,
2012-07-10, 00:26:04,VALID,917.178,VALID,0,VALID,95.529,VALID,0,VALID,20.2909,VALID,345,VALID,0,
2012-07-10, 00:27:04,VALID,917.187,VALID,0,VALID,95.4909,VALID,0,VALID,20.2519,VALID,345,VALID,0,
2012-07-10, 00:28:04,VALID,917.143,VALID,0,VALID,95.5138,VALID,0,VALID,20.2519,VALID,345,VALID,0,
2012-07-10, 00:29:04,VALID,917.161,VALID,0,VALID,95.5443,VALID,0,VALID,20.2519,VALID,22,VALID,0,
2012-07-10, 00:30:04,VALID,917.147,VALID,0,VALID,95.59,VALID,0,VALID,20.2324,VALID,22,VALID,0,
2012-07-10, 00:31:04,VALID,917.153,VALID,0,VALID,95.529,VALID,0,VALID,20.2129,VALID,13,VALID,0,
2012-07-10, 00:32:04,VALID,917.132,VALID,0,VALID,95.5824,VALID,0,VALID,20.2324,VALID,13,VALID,0,
2012-07-10, 00:33:04,VALID,917.162,VALID,0,VALID,95.4604,VALID,0,VALID,20.2129,VALID,13,VALID,0,
2012-07-10, 00:34:04,VALID,917.17,VALID,0,VALID,95.5367,VALID,0,VALID,20.2129,VALID,344,VALID,0,
2012-07-10, 00:35:04,VALID,917.164,VALID,0,VALID,95.6053,VALID,0,VALID,20.2519,VALID,344,VALID,0,
2012-07-10, 00:36:04,VALID,917.173,VALID,0,VALID,95.6205,VALID,0,VALID,20.2519,VALID,344,VALID,0,
2012-07-10, 00:37:04,VALID,917.163,VALID,0,VALID,95.5671,VALID,0,VALID,20.2519,VALID,344,VALID,0,
2012-07-10, 00:38:04,VALID,917.151,VALID,0,VALID,95.5519,VALID,0,VALID,20.2714,INVALID,360,VALID,0,
2012-07-10, 00:39:04,VALID,917.124,VALID,0,VALID,95.5671,VALID,0,VALID,20.2714,INVALID,360,VALID,0,
2012-07-10, 00:40:04,VALID,917.137,VALID,0,VALID,95.5824,VALID,0,VALID,20.2909,VALID,344,VALID,0,
2012-07-10, 00:41:04,VALID,917.136,VALID,0,VALID,95.529,VALID,0,VALID,20.3105,VALID,344,VALID,0,
2012-07-10, 00:42:04,VALID,917.081,VALID,0,VALID,95.5367,VALID,0,VALID,20.3105,VALID,344,VALID,0,
2012-07-10, 00:43:04,VALID,917.097,VALID,0,VALID,95.5138,VALID,0,VALID,20.33,VALID,344,VALID,0,
2012-07-10, 00:44:04,VALID,917.108,VALID,0,VALID,95.529,VALID,0,VALID,20.3495,VALID,344,VALID,0,
2012-07-10, 00:45:04,VALID,917.113,VALID,0,VALID,95.3994,VALID,0,VALID,20.3105,VALID,344,VALID,0,
2012-07-10, 00:46:04,VALID,917.141,VALID,0,VALID,95.3689,VALID,0,VALID,20.2909,VALID,344,VALID,0,
2012-07-10, 00:47:04,VALID,917.159,VALID,0,VALID,95.4528,VALID,0,VALID,20.2714,VALID,344,VALID,0,
2012-07-10, 00:48:04,VALID,917.207,VALID,0,VALID,95.4147,VALID,0,VALID,20.2714,VALID,344,VALID,0,
2012-07-10, 00:49:04,VALID,917.224,VALID,0,VALID,95.4604,VALID,0,VALID,20.2324,VALID,344,VALID,0,
2012-07-10, 00:50:04,VALID,917.21,VALID,0,VALID,95.4299,VALID,0,VALID,20.2129,VALID,2,VALID,0,
2012-07-10, 00:51:04,VALID,917.242,VALID,0,VALID,95.3918,VALID,0,VALID,20.1529,VALID,34,VALID,0,
2012-07-10, 00:52:04,VALID,917.235,VALID,0,VALID,95.4604,VALID,0,VALID,20.1529,VALID,25,VALID,0,
2012-07-10, 00:53:04,VALID,917.282,VALID,0,VALID,95.4985,VALID,0,VALID,20.1739,VALID,25,VALID,0,
2012-07-10, 00:54:04,VALID,917.287,VALID,0,VALID,95.5367,VALID,0,VALID,20.1739,VALID,25,VALID,0,
2012-07-10, 00:55:04,VALID,917.285,VALID,0,VALID,95.5824,VALID,0,VALID,20.1739,VALID,25,VALID,0,
2012-07-10, 00:56:04,VALID,917.315,VALID,0,VALID,95.5443,VALID,0,VALID,20.1544,VALID,25,VALID,0,
2012-07-10, 00:57:04,VALID,917.265,VALID,0,VALID,95.6281,VALID,0,VALID,20.1544,VALID,218,VALID,0,
2012-07-10, 00:58:04,VALID,917.316,VALID,0,VALID,95.6586,VALID,0,VALID,20.1349,VALID,268,VALID,0,
2012-07-10, 00:59:04,VALID,917.294,VALID,0,VALID,95.6891,VALID,0,VALID,20.1154,VALID,249,VALID,0,
2012-07-10, 01:00:04,VALID,917.294,VALID,0,VALID,95.7654,VALID,0,VALID,20.0959,VALID,1,VALID,0,
2012-07-10, 01:01:04,VALID,917.299,VALID,0,VALID,95.7882,VALID,0,VALID,20.0764,VALID,51,VALID,0,
2012-07-10, 01:02:04,VALID,917.263,VALID,0,VALID,95.7806,VALID,0,VALID,20.0569,VALID,213,VALID,0,
2012-07-10, 01:03:04,VALID,917.272,VALID,0,VALID,95.8645,VALID,0,VALID,20.0569,VALID,20,VALID,0,
2012-07-10, 01:04:04,VALID,917.25,VALID,0,VALID,95.8873,VALID,0,VALID,20.0374,VALID,18,VALID,0,
2012-07-10, 01:05:04,VALID,917.221,VALID,0,VALID,95.7425,VALID,0,VALID,19.9788,VALID,251,VALID,0,
2012-07-10, 01:06:04,VALID,917.226,VALID,0,VALID,95.8416,VALID,0,VALID,19.9593,VALID,350,VALID,0,
2012-07-10, 01:07:04,VALID,917.19,VALID,0,VALID,95.7882,VALID,0,VALID,19.9593,VALID,350,VALID,0,
2012-07-10, 01:08:04,VALID,917.173,VALID,0,VALID,95.8568,VALID,0,VALID,19.9788,VALID,31,VALID,0,
2012-07-10, 01:09:04,VALID,917.144,VALID,0,VALID,95.8873,VALID,0,VALID,19.9593,VALID,83,VALID,0,
2012-07-10, 01:10:04,VALID,917.127,VALID,0,VALID,95.895,VALID,0,VALID,19.9398,VALID,83,VALID,0,
2012-07-10, 01:11:04,VALID,917.088,VALID,0,VALID,95.9407,VALID,0,VALID,19.9203,VALID,16,VALID,0,
2012-07-10, 01:12:04,VALID,917.082,VALID,0,VALID,95.8873,VALID,0,VALID,19.9008,VALID,333,VALID,0,
2012-07-10, 01:13:04,VALID,917.019,VALID,0,VALID,95.9712,VALID,0,VALID,19.9398,VALID,351,VALID,0,
2012-07-10, 01:14:04,VALID,917.011,VALID,0,VALID,95.8721,VALID,0,VALID,19.8603,VALID,59,VALID,0,
2012-07-10, 01:15:04,VALID,916.98,VALID,0,VALID,95.895,VALID,0,VALID,19.8813,VALID,76,VALID,0,
2012-07-10, 01:16:04,VALID,916.905,VALID,0,VALID,95.9941,VALID,0,VALID,19.8423,VALID,59,VALID,0,
2012-07-10, 01:17:04,VALID,916.866,VALID,0,VALID,95.7654,VALID,0,VALID,19.8033,VALID,341,VALID,0.0753906,
2012-07-10, 01:18:04,VALID,916.894,VALID,0,VALID,95.8797,VALID,0,VALID,19.8228,VALID,280,VALID,0,
2012-07-10, 01:19:04,VALID,916.85,VALID,0,VALID,95.8797,VALID,0,VALID,19.8423,VALID,280,VALID,0,
2012-07-10, 01:20:04,VALID,916.808,VALID,0,VALID,95.8492,VALID,0,VALID,19.7643,VALID,270,VALID,0,
2012-07-10, 01:21:04,VALID,916.724,VALID,0,VALID,95.8187,VALID,0,VALID,19.7643,VALID,55,VALID,0,
2012-07-10, 01:22:04,VALID,916.777,VALID,0,VALID,95.8645,VALID,0,VALID,19.7838,VALID,291,VALID,0,
2012-07-10, 01:23:04,VALID,916.765,VALID,0,VALID,95.9559,VALID,0,VALID,19.7643,VALID,342,VALID,0,
2012-07-10, 01:24:04,VALID,916.712,VALID,0,VALID,95.9712,VALID,0,VALID,19.7838,VALID,334,VALID,0,
2012-07-10, 01:25:04,VALID,916.696,VALID,0,VALID,95.8721,VALID,0,VALID,19.7643,VALID,311,VALID,0.00117188,
2012-07-10, 01:26:04,VALID,916.663,VALID,0,VALID,95.8645,VALID,0,VALID,19.7238,VALID,259,VALID,0,
2012-07-10, 01:27:04,VALID,916.616,VALID,0,VALID,95.8873,VALID,0,VALID,19.7043,VALID,52,VALID,0,
2012-07-10, 01:28:04,VALID,916.62,VALID,0,VALID,95.9254,VALID,0,VALID,19.6863,VALID,89,VALID,0,
2012-07-10, 01:29:04,VALID,916.645,VALID,0,VALID,96.0398,VALID,0,VALID,19.7253,VALID,75,VALID,0,
2012-07-10, 01:30:04,VALID,916.622,VALID,0,VALID,96.0627,VALID,0,VALID,19.7253,VALID,52,VALID,0,
2012-07-10, 01:31:04,VALID,916.639,VALID,0,VALID,96.1313,VALID,0,VALID,19.7448,VALID,29,VALID,0,
2012-07-10, 01:32:04,VALID,916.662,VALID,0,VALID,96.1541,VALID,0,VALID,19.7658,VALID,22,VALID,0,
2012-07-10, 01:33:04,VALID,916.665,VALID,0,VALID,96.0017,VALID,0,VALID,19.7058,VALID,16,VALID,0,
2012-07-10, 01:34:04,VALID,916.721,VALID,0,VALID,96.0093,VALID,0,VALID,19.6878,VALID,6,VALID,0,
2012-07-10, 01:35:04,VALID,916.753,VALID,0,VALID,96.1846,VALID,0,VALID,19.6668,VALID,38,VALID,0,
2012-07-10, 01:36:04,VALID,916.782,VALID,0,VALID,96.1084,VALID,0,VALID,19.6278,VALID,17,VALID,0.0375,
2012-07-10, 01:37:04,VALID,916.807,VALID,0,VALID,96.0474,VALID,0,VALID,19.5888,VALID,25,VALID,0.0289063,
2012-07-10, 01:38:04,VALID,916.81,VALID,0,VALID,96.0322,VALID,0,VALID,19.5498,VALID,21,VALID,0.43125,
2012-07-10, 01:39:04,VALID,916.832,VALID,0,VALID,95.8873,VALID,0,VALID,19.4913,VALID,343,VALID,0.0289063,
2012-07-10, 01:40:04,VALID,916.723,VALID,0,VALID,95.7349,VALID,0,VALID,19.4132,VALID,13,VALID,0.904297,
2012-07-10, 01:41:04,VALID,916.752,VALID,0,VALID,95.7044,VALID,0,VALID,19.3742,VALID,18,VALID,0.0429688,
2012-07-10, 01:42:04,VALID,916.705,VALID,0,VALID,95.7044,VALID,0,VALID,19.3547,VALID,9,VALID,0.403906,
2012-07-10, 01:43:04,VALID,916.653,VALID,0,VALID,95.4757,VALID,0,VALID,19.3172,VALID,24,VALID,1.65352,
2012-07-10, 01:44:04,VALID,916.655,VALID,0,VALID,95.3842,VALID,0,VALID,19.2962,VALID,12,VALID,0.677734,
2012-07-10, 01:45:04,VALID,916.612,VALID,0,VALID,95.3308,VALID,0,VALID,19.2962,VALID,20,VALID,1.68711,
2012-07-10, 01:46:04,VALID,916.575,VALID,0,VALID,95.0335,VALID,0,VALID,19.2767,VALID,9,VALID,0.975,
2012-07-10, 01:47:04,VALID,916.608,VALID,0,VALID,94.7972,VALID,0,VALID,19.2377,VALID,353,VALID,0.00195313,
2012-07-10, 01:48:04,VALID,916.621,VALID,0,VALID,94.6905,VALID,0,VALID,19.2377,VALID,337,VALID,0.0183594,
2012-07-10, 01:49:04,VALID,916.633,VALID,0,VALID,94.5685,VALID,0,VALID,19.2182,VALID,12,VALID,0.650781,
2012-07-10, 01:50:04,VALID,916.611,VALID,0,VALID,94.4694,VALID,0,VALID,19.2002,VALID,19,VALID,0.75,
2012-07-10, 01:51:04,VALID,916.613,VALID,0,VALID,94.6066,VALID,0,VALID,19.1807,VALID,22,VALID,0.482812,
2012-07-10, 01:52:04,VALID,916.573,VALID,0,VALID,94.4008,VALID,0,VALID,19.1207,VALID,13,VALID,0.354297,
2012-07-10, 01:53:04,VALID,916.599,VALID,0,VALID,94.4694,VALID,0,VALID,19.1207,VALID,15,VALID,0.246875,
2012-07-10, 01:54:04,VALID,916.612,VALID,0,VALID,94.5761,VALID,0,VALID,19.1027,VALID,4,VALID,2.45156,
2012-07-10, 01:55:04,VALID,916.543,VALID,0,VALID,94.4465,VALID,0,VALID,19.0427,VALID,9,VALID,2.53672,
2012-07-10, 01:56:04,VALID,916.508,VALID,0,VALID,94.5913,VALID,0,VALID,19.0442,VALID,6,VALID,2.05586,
2012-07-10, 01:57:04,VALID,916.532,VALID,0,VALID,94.4008,VALID,0,VALID,19.0037,VALID,1,VALID,2.41172,
2012-07-10, 01:58:04,VALID,916.557,VALID,0,VALID,94.1339,VALID,0,VALID,18.9452,VALID,355,VALID,1.55977,
2012-07-10, 01:59:04,VALID,916.546,VALID,0,VALID,94.3626,VALID,0,VALID,18.9842,VALID,359,VALID,1.90508,
2012-07-10, 02:00:04,VALID,916.632,VALID,0,VALID,94.4389,VALID,0,VALID,19.0247,VALID,343,VALID,2.04063,
2012-07-10, 02:01:04,VALID,916.598,VALID,0,VALID,94.3779,VALID,0,VALID,18.9857,VALID,21,VALID,1.13203,
2012-07-10, 02:02:04,VALID,916.641,VALID,0,VALID,94.3474,VALID,0,VALID,18.9452,VALID,323,VALID,1.76914,
2012-07-10, 02:03:04,VALID,916.676,VALID,0,VALID,94.4617,VALID,0,VALID,18.9467,VALID,346,VALID,1.50195,
2012-07-10, 02:04:04,VALID,916.662,VALID,0,VALID,94.6523,VALID,0,VALID,18.9257,VALID,347,VALID,1.18711,
2012-07-10, 02:05:04,VALID,916.666,VALID,0,VALID,94.7057,VALID,0,VALID,18.9062,VALID,32,VALID,1.72539,
2012-07-10, 02:06:04,VALID,916.648,VALID,0,VALID,94.7057,VALID,0,VALID,18.9257,VALID,356,VALID,1.19375,
2012-07-10, 02:07:04,VALID,916.615,VALID,0,VALID,94.7972,VALID,0,VALID,18.9467,VALID,3,VALID,2.7625,
2012-07-10, 02:08:04,VALID,916.616,VALID,0,VALID,95.0411,VALID,0,VALID,18.8882,VALID,29,VALID,1.91836,
2012-07-10, 02:09:04,VALID,916.626,VALID,0,VALID,95.064,VALID,0,VALID,18.8477,VALID,7,VALID,1.77617,
2012-07-10, 02:10:04,VALID,916.651,VALID,0,VALID,95.1631,VALID,0,VALID,18.8463,VALID,346,VALID,1.27305,
2012-07-10, 02:11:04,VALID,916.676,VALID,0,VALID,95.247,VALID,0.107441,VALID,18.8073,VALID,360,VALID,0.0289063,
2012-07-10, 02:12:04,VALID,916.694,VALID,0,VALID,95.1707,VALID,0.107441,VALID,18.8073,VALID,352,VALID,2.53359,
2012-07-10, 02:13:04,VALID,916.699,VALID,0,VALID,95.1936,VALID,0.107441,VALID,18.8282,VALID,351,VALID,1.88906,
2012-07-10, 02:14:04,VALID,916.729,VALID,0,VALID,95.125,VALID,0.107441,VALID,18.7878,VALID,347,VALID,0.639453,
2012-07-10, 02:15:04,VALID,916.721,VALID,0,VALID,95.1326,VALID,0.107441,VALID,18.8073,VALID,335,VALID,1.37344,
2012-07-10, 02:16:04,VALID,916.72,VALID,0,VALID,95.1936,VALID,0.107441,VALID,18.7878,VALID,337,VALID,0.903516,
2012-07-10, 02:17:04,VALID,916.758,VALID,0,VALID,95.1783,VALID,0.107441,VALID,18.7878,VALID,332,VALID,0.736328,
2012-07-10, 02:18:04,VALID,916.75,VALID,0,VALID,95.1021,VALID,0,VALID,18.7878,VALID,344,VALID,0.557813,
2012-07-10, 02:19:04,VALID,916.743,VALID,0,VALID,95.247,VALID,0,VALID,18.8073,VALID,9,VALID,1.1457,
2012-07-10, 02:20:04,VALID,916.716,VALID,0,VALID,95.4071,VALID,0.107441,VALID,18.8658,VALID,18,VALID,0.979688,
2012-07-10, 02:21:04,VALID,916.707,VALID,0,VALID,95.1707,VALID,0.107441,VALID,18.8268,VALID,340,VALID,1.11836,
2012-07-10, 02:22:04,VALID,916.732,VALID,0,VALID,94.9573,VALID,0,VALID,18.8073,VALID,18,VALID,1.32031,
2012-07-10, 02:23:04,VALID,916.702,VALID,0,VALID,94.7362,VALID,0.107441,VALID,18.8658,VALID,317,VALID,0.936328,
2012-07-10, 02:24:04,VALID,916.682,VALID,0,VALID,94.3169,VALID,0.107441,VALID,18.8853,VALID,328,VALID,1.34453,
2012-07-10, 02:25:04,VALID,916.658,VALID,0,VALID,94.1492,VALID,0,VALID,18.9272,VALID,342,VALID,0.898047,
2012-07-10, 02:26:04,VALID,916.672,VALID,0,VALID,94.0272,VALID,0,VALID,18.9077,VALID,342,VALID,0.455469,
2012-07-10, 02:27:04,VALID,916.629,VALID,0,VALID,94.0958,VALID,0,VALID,18.9077,VALID,342,VALID,0.640234,
2012-07-10, 02:28:04,VALID,916.558,VALID,0,VALID,94.2559,VALID,0,VALID,18.9272,VALID,342,VALID,0.660937,
2012-07-10, 02:29:04,VALID,916.567,VALID,0,VALID,94.2407,VALID,0,VALID,18.9062,VALID,16,VALID,1.025,
2012-07-10, 02:30:04,VALID,916.578,VALID,0,VALID,94.2254,VALID,0,VALID,18.8672,VALID,7,VALID,1.34023,
2012-07-10, 02:31:04,VALID,916.574,VALID,0,VALID,94.2026,VALID,0,VALID,18.8687,VALID,9,VALID,1.7543,
2012-07-10, 02:32:04,VALID,916.581,VALID,0,VALID,94.3017,VALID,0,VALID,18.8492,VALID,9,VALID,1.4418,
2012-07-10, 02:33:04,VALID,916.596,VALID,0,VALID,94.416,VALID,0,VALID,18.8297,VALID,9,VALID,0,
2012-07-10, 02:34:04,VALID,916.604,VALID,0,VALID,94.4999,VALID,0,VALID,18.8297,VALID,9,VALID,0,
2012-07-10, 02:35:04,VALID,916.57,VALID,0,VALID,94.4465,VALID,0,VALID,18.8102,VALID,352,VALID,0,
2012-07-10, 02:36:04,VALID,916.561,VALID,0,VALID,94.6295,VALID,0,VALID,18.8297,VALID,26,VALID,0,
2012-07-10, 02:37:04,VALID,916.561,VALID,0,VALID,94.6981,VALID,0,VALID,18.8087,VALID,26,VALID,0,
2012-07-10, 02:38:04,VALID,916.574,VALID,0,VALID,94.6218,VALID,0,VALID,18.8297,VALID,26,VALID,0,
2012-07-10, 02:39:04,VALID,916.562,VALID,0,VALID,94.6295,VALID,0,VALID,18.8477,VALID,26,VALID,0,
2012-07-10, 02:40:04,VALID,916.552,VALID,0,VALID,94.6218,VALID,0,VALID,18.8672,VALID,2,VALID,0,
2012-07-10, 02:41:04,VALID,916.546,VALID,0,VALID,94.5609,VALID,0,VALID,18.8282,VALID,300,VALID,0,
2012-07-10, 02:42:04,VALID,916.558,VALID,0,VALID,94.6676,VALID,0,VALID,18.8463,VALID,356,VALID,0,
2012-07-10, 02:43:04,VALID,916.63,VALID,0,VALID,94.5913,VALID,0,VALID,18.8867,VALID,21,VALID,0,
2012-07-10, 02:44:04,VALID,916.657,VALID,0,VALID,94.6371,VALID,0,VALID,18.9452,VALID,19,VALID,0,
2012-07-10, 02:45:04,VALID,916.672,VALID,0,VALID,94.4236,VALID,0,VALID,18.8658,VALID,14,VALID,0,
2012-07-10, 02:46:04,VALID,916.742,VALID,0,VALID,94.4389,VALID,0,VALID,18.9062,VALID,6,VALID,0,
2012-07-10, 02:47:04,VALID,916.746,VALID,0,VALID,94.3245,VALID,0,VALID,18.8867,VALID,2,VALID,0,
2012-07-10, 02:48:04,VALID,916.733,VALID,0,VALID,94.2788,VALID,0,VALID,18.8463,VALID,10,VALID,0,
2012-07-10, 02:49:04,VALID,916.746,VALID,0,VALID,94.3931,VALID,0,VALID,18.8477,VALID,31,VALID,0,
2012-07-10, 02:50:04,VALID,916.752,VALID,0,VALID,94.4617,VALID,0,VALID,18.8477,VALID,6,VALID,0,
2012-07-10, 02:51:04,VALID,916.741,VALID,0,VALID,94.2407,VALID,0,VALID,18.8282,VALID,11,VALID,0,
2012-07-10, 02:52:04,VALID,916.78,VALID,0,VALID,94.1416,VALID,0,VALID,18.8477,VALID,10,VALID,0,
2012-07-10, 02:53:04,VALID,916.794,VALID,0,VALID,94.0577,VALID,0,VALID,18.8463,VALID,24,VALID,0,
2012-07-10, 02:54:04,VALID,916.751,VALID,0,VALID,93.9052,VALID,0,VALID,18.8658,VALID,14,VALID,0,
2012-07-10, 02:55:04,VALID,916.739,VALID,0,VALID,94.0196,VALID,0,VALID,18.9272,VALID,22,VALID,0,
2012-07-10, 02:56:04,VALID,916.737,VALID,0,VALID,93.9815,VALID,0,VALID,18.9467,VALID,3,VALID,0,
2012-07-10, 02:57:04,VALID,916.711,VALID,0,VALID,93.6994,VALID,0,VALID,18.9857,VALID,351,VALID,0,
2012-07-10, 02:58:04,VALID,916.681,VALID,0,VALID,93.4326,VALID,0,VALID,18.9857,VALID,29,VALID,0.122266,
2012-07-10, 02:59:04,VALID,916.731,VALID,0,VALID,93.5469,VALID,0,VALID,19.0427,VALID,317,VALID,0,
2012-07-10, 03:00:04,VALID,916.693,VALID,0,VALID,93.4097,VALID,0,VALID,19.0832,VALID,306,VALID,0,
2012-07-10, 03:01:04,VALID,916.691,VALID,0,VALID,93.4097,VALID,0,VALID,19.0832,VALID,307,VALID,0,
2012-07-10, 03:02:04,VALID,916.701,VALID,0,VALID,93.5851,VALID,0,VALID,19.0817,VALID,306,VALID,0,
2012-07-10, 03:03:04,VALID,916.702,VALID,0,VALID,93.8214,VALID,0,VALID,19.1027,VALID,306,VALID,0,
2012-07-10, 03:04:04,VALID,916.708,VALID,0,VALID,93.8138,VALID,0,VALID,19.0832,VALID,306,VALID,0,
2012-07-10, 03:05:04,VALID,916.73,VALID,0,VALID,93.9129,VALID,0,VALID,19.1027,VALID,343,VALID,0,
2012-07-10, 03:06:04,VALID,916.747,VALID,0,VALID,93.5622,VALID,0,VALID,19.0232,INVALID,360,VALID,0,
2012-07-10, 03:07:04,VALID,916.789,VALID,0,VALID,93.6918,VALID,0,VALID,19.0637,VALID,343,VALID,0,
2012-07-10, 03:08:04,VALID,916.791,VALID,0,VALID,93.8519,VALID,0,VALID,19.0832,VALID,343,VALID,0,
2012-07-10, 03:09:04,VALID,916.772,VALID,0,VALID,94.1187,VALID,0,VALID,19.0637,VALID,22,VALID,0,
2012-07-10, 03:10:04,VALID,916.734,VALID,0,VALID,94.3855,VALID,0,VALID,19.0622,VALID,22,VALID,0,
2012-07-10, 03:11:04,VALID,916.73,VALID,0,VALID,94.4389,VALID,0,VALID,19.0427,VALID,6,VALID,0,
2012-07-10, 03:12:04,VALID,916.725,VALID,0,VALID,94.5075,VALID,0,VALID,18.9828,VALID,23,VALID,0,
2012-07-10, 03:13:04,VALID,916.705,VALID,0,VALID,94.5913,VALID,0.107441,VALID,19.0023,VALID,4,VALID,0,
2012-07-10, 03:14:04,VALID,916.738,VALID,0,VALID,94.6447,VALID,0.107441,VALID,19.0037,VALID,10,VALID,0,
2012-07-10, 03:15:04,VALID,916.736,VALID,0,VALID,94.8124,VALID,0,VALID,19.0037,VALID,15,VALID,0,
2012-07-10, 03:16:04,VALID,916.795,VALID,0,VALID,94.6752,VALID,0,VALID,18.9633,VALID,15,VALID,0,
2012-07-10, 03:17:04,VALID,916.818,VALID,0,VALID,94.7286,VALID,0,VALID,18.9842,VALID,15,VALID,0,
2012-07-10, 03:18:04,VALID,916.862,VALID,0,VALID,94.7514,VALID,0,VALID,18.9842,VALID,347,VALID,0.190625,
2012-07-10, 03:19:04,VALID,916.884,VALID,0,VALID,94.8429,VALID,0,VALID,18.9647,VALID,7,VALID,0,
2012-07-10, 03:20:04,VALID,916.89,VALID,0,VALID,94.8734,VALID,0,VALID,18.9647,VALID,23,VALID,0,
2012-07-10, 03:21:04,VALID,916.939,VALID,0,VALID,95.0259,VALID,0,VALID,18.9842,VALID,22,VALID,0,
2012-07-10, 03:22:04,VALID,916.92,VALID,0,VALID,95.0183,VALID,0,VALID,18.9647,VALID,6,VALID,0,
2012-07-10, 03:23:04,VALID,916.937,VALID,0,VALID,95.0792,VALID,0,VALID,18.9452,VALID,6,VALID,0,
2012-07-10, 03:24:04,VALID,916.925,VALID,0,VALID,95.0716,VALID,0,VALID,18.9257,VALID,16,VALID,0,
2012-07-10, 03:25:04,VALID,916.911,VALID,0,VALID,95.186,VALID,0.107441,VALID,18.9452,VALID,7,VALID,0,
2012-07-10, 03:26:04,VALID,916.917,VALID,0,VALID,95.0945,VALID,0.107441,VALID,18.9452,VALID,1,VALID,0,
2012-07-10, 03:27:04,VALID,916.929,VALID,0,VALID,95.0335,VALID,0,VALID,18.9452,VALID,4,VALID,0,
2012-07-10, 03:28:04,VALID,916.914,VALID,0,VALID,95.1326,VALID,0,VALID,18.9452,VALID,14,VALID,0,
2012-07-10, 03:29:04,VALID,916.894,VALID,0,VALID,95.2012,VALID,0,VALID,18.9452,VALID,14,VALID,0,
2012-07-10, 03:30:04,VALID,916.883,VALID,0,VALID,95.3079,VALID,0,VALID,18.9438,VALID,14,VALID,0,
2012-07-10, 03:31:04,VALID,916.885,VALID,0,VALID,95.468,VALID,0,VALID,18.9842,VALID,14,VALID,0,
2012-07-10, 03:32:04,VALID,916.885,VALID,0,VALID,95.529,VALID,0.107441,VALID,18.9633,VALID,14,VALID,0,
2012-07-10, 03:33:04,VALID,916.873,VALID,0.2,VALID,95.651,VALID,0,VALID,19.0037,VALID,14,VALID,0,
2012-07-10, 03:34:04,VALID,916.839,VALID,0,VALID,95.6891,VALID,0,VALID,19.0232,VALID,14,VALID,0,
2012-07-10, 03:35:04,VALID,916.809,VALID,0.2,VALID,95.6967,VALID,0,VALID,19.0023,VALID,13,VALID,0,
2012-07-10, 03:36:04,VALID,916.764,VALID,0.2,VALID,95.6739,VALID,0,VALID,18.9842,VALID,5,VALID,0,
2012-07-10, 03:37:04,VALID,916.758,VALID,0,VALID,95.6891,VALID,0,VALID,18.9647,VALID,5,VALID,0,
2012-07-10, 03:38:04,VALID,916.727,VALID,0.2,VALID,95.7272,VALID,0,VALID,18.9452,VALID,5,VALID,0,
2012-07-10, 03:39:04,VALID,916.735,VALID,0,VALID,95.773,VALID,0,VALID,18.9257,VALID,5,VALID,0,
2012-07-10, 03:40:04,VALID,916.727,VALID,0,VALID,95.7958,VALID,0,VALID,18.9257,VALID,5,VALID,0,
2012-07-10, 03:41:04,VALID,916.753,VALID,0.2,VALID,95.8492,VALID,0.107441,VALID,18.9048,VALID,12,VALID,0,
2012-07-10, 03:42:04,VALID,916.757,VALID,0,VALID,95.8111,VALID,0,VALID,18.8867,VALID,359,VALID,0,
2012-07-10, 03:43:04,VALID,916.757,VALID,0,VALID,95.9178,VALID,0,VALID,18.8867,VALID,2,VALID,0,
2012-07-10, 03:44:04,VALID,916.779,VALID,0,VALID,95.9178,VALID,0,VALID,18.8477,VALID,2,VALID,0,
2012-07-10, 03:45:04,VALID,916.787,VALID,0,VALID,95.9788,VALID,0,VALID,18.8477,VALID,37,VALID,0,
2012-07-10, 03:46:04,VALID,916.835,VALID,0.2,VALID,95.9941,VALID,0,VALID,18.8477,VALID,37,VALID,0,
2012-07-10, 03:47:04,VALID,916.895,VALID,0,VALID,96.0017,VALID,0,VALID,18.7892,VALID,37,VALID,0,
2012-07-10, 03:48:04,VALID,916.941,VALID,0,VALID,96.0245,VALID,0,VALID,18.8087,VALID,37,VALID,0,
2012-07-10, 03:49:04,VALID,916.967,VALID,0,VALID,96.0855,VALID,0,VALID,18.7892,VALID,37,VALID,0,
2012-07-10, 03:50:04,VALID,917.007,VALID,0,VALID,96.1389,VALID,0,VALID,18.7892,VALID,37,VALID,0,
2012-07-10, 03:51:04,VALID,917.026,VALID,0.2,VALID,96.2151,VALID,0,VALID,18.8282,VALID,37,VALID,0,
2012-07-10, 03:52:04,VALID,917.044,VALID,0,VALID,96.2304,VALID,0,VALID,18.8282,VALID,37,VALID,0,
2012-07-10, 03:53:04,VALID,917.014,VALID,0.2,VALID,96.2837,VALID,0,VALID,18.8672,VALID,37,VALID,0,
2012-07-10, 03:54:04,VALID,917.064,VALID,0,VALID,96.2837,VALID,0,VALID,18.8268,VALID,37,VALID,0,
2012-07-10, 03:55:04,VALID,917.047,VALID,0,VALID,96.3829,VALID,0,VALID,18.8672,VALID,37,VALID,0,
2012-07-10, 03:56:04,VALID,917.074,VALID,0.2,VALID,96.3219,VALID,0,VALID,18.8867,VALID,37,VALID,0,